Kuiper-00038

operational
NORAD ID: 63750 Int'l Des: 2025-088 Owner: KUIP Country: US Constellation: kuiper
LEOCIRCULAR

About Kuiper-00038

Description loading...

Live Position

Loading 3D Globe...

Upcoming Passes

Altitude History

Altitude vs Time

uPlot chart will show altitude changes over time

Two-Line Element Set

1 63750U 25088AC 25345.12599800 .00001916 00000-0 28025-3 0 9994
2 63750 51.9024 129.7060 0008112 133.4457 226.7181 14.79950496 34400
Epoch: Dec 11, 2025 • Age: 9 hours

Current Status

Altitude 624.5 km
Velocity 7.55 km/s
Sub-Earth Point 21.51°N, 32.56°E
Launch Date Apr 28, 2025
Age 0.6 years
Type internet

Technical Details

Classification Payload
Mass 490.00 kg
Dry Mass 490.00 kg
Total Mass 490.00 kg
Length 1.80 m
Diameter 0.70 m
Span 5.00 m
Shape Box + 2 pan
Manufacturer KUIP
Bus Type Kuiper
Phase Status In Orbit
Owner/State KUIP/US

Large Constellations

Loading constellations...